2023/10/02 00:00:00, 4.9,16.3
2023/10/02 00:10:00, 5.1,16.2
2023/10/02 00:20:00, 5.4,15.9
2023/10/02 00:30:00, 5.5,16.2
2023/10/02 00:40:00, 5.7,15.9
2023/10/02 00:50:00, 5.7,15.9
2023/10/02 01:00:00, 5.8,16.0
2023/10/02 01:10:00, 5.8,15.9
2023/10/02 01:20:00, 5.6,15.7
2023/10/02 01:30:00, 5.3,16.1
2023/10/02 01:40:00, 5.2,16.2
2023/10/02 01:50:00, 5.1,16.3
2023/10/02 02:00:00, 4.8,15.9
2023/10/02 02:10:00, 4.7,15.9
2023/10/02 02:20:00, 4.6,15.8
2023/10/02 02:30:00, 4.7,15.3
2023/10/02 02:40:00, 4.6,15.7
2023/10/02 02:50:00, 4.7,15.4
2023/10/02 03:00:00, 4.6,15.6
2023/10/02 03:10:00, 4.6,15.5
2023/10/02 03:20:00, 4.6,15.3
2023/10/02 03:30:00, 4.7,15.1
2023/10/02 03:40:00, 4.7,14.8
2023/10/02 03:50:00, 4.8,14.8
2023/10/02 04:00:00, 4.8,14.8
2023/10/02 04:10:00, 4.9,15.0
2023/10/02 04:20:00, 4.8,15.2
2023/10/02 04:30:00, 5.0,14.9
2023/10/02 04:40:00, 5.0,14.8
2023/10/02 04:50:00, 5.0,14.5
2023/10/02 05:00:00, 5.0,14.3
2023/10/02 05:10:00, 4.9,14.3
2023/10/02 05:20:00, 4.9,14.3
2023/10/02 05:30:00, 4.9,14.1
2023/10/02 05:40:00, 4.8,13.8
2023/10/02 05:50:00, 4.9,13.8
2023/10/02 06:00:00, 4.9,13.7
2023/10/02 06:10:00, 4.8,13.8
2023/10/02 06:20:00, 4.7,14.0
2023/10/02 06:30:00, 4.7,13.7
2023/10/02 06:40:00, 4.8,14.1
2023/10/02 06:50:00, 4.9,15.0
2023/10/02 07:00:00, 4.8,15.6
2023/10/02 07:10:00, 4.7,16.9
2023/10/02 07:20:00, 4.8,18.2
2023/10/02 07:30:00, 4.7,20.4
2023/10/02 07:40:00, 4.7,21.9
2023/10/02 07:50:00, 4.6,23.1
2023/10/02 08:00:00, 4.6,23.8
2023/10/02 08:10:00, 4.5,24.4
2023/10/02 08:20:00, 4.5,24.9
2023/10/02 08:30:00, 4.5,26.1
2023/10/02 08:40:00, 4.4,27.5
2023/10/02 08:50:00, 4.5,27.6
2023/10/02 09:00:00, 4.4,27.0
2023/10/02 09:10:00, 4.5,27.3
2023/10/02 09:20:00, 4.5,28.0
2023/10/02 09:30:00, 4.7,26.7
2023/10/02 09:40:00, 4.8,26.4
2023/10/02 09:50:00, 4.8,27.4
2023/10/02 10:00:00, 4.9,25.1
2023/10/02 10:10:00, 5.1,24.9
2023/10/02 10:20:00, 5.3,25.8
2023/10/02 10:30:00, 5.8,24.1
2023/10/02 10:40:00, 5.6,23.9
2023/10/02 10:50:00, 5.7,24.9
2023/10/02 11:00:00, 5.8,23.9
2023/10/02 11:10:00, 6.2,25.4
2023/10/02 11:20:00, 6.3,24.0
2023/10/02 11:30:00, 6.5,25.1
2023/10/02 11:40:00, 6.3,24.6
2023/10/02 11:50:00, 6.3,25.3
2023/10/02 12:00:00, 6.3,24.8
2023/10/02 12:10:00, 6.3,25.8
2023/10/02 12:20:00, 6.3,25.7
2023/10/02 12:30:00, 6.3,26.5
2023/10/02 12:40:00, 6.0,26.4
2023/10/02 12:50:00, 6.0,26.5
2023/10/02 13:00:00, 6.2,26.6
2023/10/02 13:10:00, 6.3,27.2
2023/10/02 13:20:00, 6.2,27.0
2023/10/02 13:30:00, 6.0,27.5
2023/10/02 13:40:00, 5.6,26.6
2023/10/02 13:50:00, 5.3,27.0
2023/10/02 14:00:00, 5.6,26.6
2023/10/02 14:10:00, 5.7,26.3
2023/10/02 14:20:00, 5.5,25.8
2023/10/02 14:30:00, 5.3,26.9
2023/10/02 14:40:00, 5.2,27.4
2023/10/02 14:50:00, 5.2,26.6
2023/10/02 15:00:00, 5.3,25.9
2023/10/02 15:10:00, 5.0,27.0
2023/10/02 15:20:00, 5.3,27.6
2023/10/02 15:30:00, 5.3,28.4
2023/10/02 15:40:00, 5.3,29.0
2023/10/02 15:50:00, 5.3,29.0
2023/10/02 16:00:00, 5.2,28.2
2023/10/02 16:10:00, 5.2,26.8
2023/10/02 16:20:00, 5.0,29.0
2023/10/02 16:30:00, 5.0,30.1
2023/10/02 16:40:00, 5.0,30.8
2023/10/02 16:50:00, 5.0,29.2
2023/10/02 17:00:00, 5.0,23.2
2023/10/02 17:10:00, 5.1,20.3
2023/10/02 17:20:00, 5.0,19.4
2023/10/02 17:30:00, 4.9,18.2
2023/10/02 17:40:00, 4.9,17.8
2023/10/02 17:50:00, 4.9,16.9
2023/10/02 18:00:00, 4.8,16.8
2023/10/02 18:10:00, 4.8,16.7
2023/10/02 18:20:00, 4.8,15.9
2023/10/02 18:30:00, 4.7,15.9
2023/10/02 18:40:00, 4.7,15.5
2023/10/02 18:50:00, 4.6,15.5
2023/10/02 19:00:00, 4.6,15.2
2023/10/02 19:10:00, 4.6,15.1
2023/10/02 19:20:00, 4.6,14.8
2023/10/02 19:30:00, 4.5,14.7
2023/10/02 19:40:00, 4.3,14.6
2023/10/02 19:50:00, 3.9,14.6
2023/10/02 20:00:00, 4.1,14.6
2023/10/02 20:10:00, 4.4,14.6
2023/10/02 20:20:00, 4.4,14.4
2023/10/02 20:30:00, 3.4,14.6
2023/10/02 20:40:00, 4.1,14.5
2023/10/02 20:50:00, 4.6,14.3
2023/10/02 21:00:00, 4.8,14.4
2023/10/02 21:10:00, 4.9,14.1
2023/10/02 21:20:00, 4.9,14.3
2023/10/02 21:30:00, 5.0,14.0
2023/10/02 21:40:00, 5.0,14.0
2023/10/02 21:50:00, 5.1,14.1
2023/10/02 22:00:00, 5.1,14.0
2023/10/02 22:10:00, 5.2,13.7
2023/10/02 22:20:00, 5.3,14.2
2023/10/02 22:30:00, 5.3,14.3
2023/10/02 22:40:00, 5.3,13.7
2023/10/02 22:50:00, 5.3,13.7
2023/10/02 23:00:00, 5.4,13.4
2023/10/02 23:10:00, 5.4,13.5
2023/10/02 23:20:00, 5.4,13.3
2023/10/02 23:30:00, 5.5,13.9
2023/10/02 23:40:00, 5.5,13.5
2023/10/02 23:50:00, 5.6,13.7
